Location: Newark
(52.3735°N, 16.9806°E)
Time: 03:58:21
(UTC+00:00)

LilacSat-2 - Pass Details

Date: 03 December 2021
Orbit: 511 x 532 km, 97.5° (Epoch: 16 January)

Event Time Altitude Azimuth Distance (km) Brightness Sun altitude
Rises 16:03:16 0° 179° (S) 2,627 ? -11.8°
Reaches altitude 10° 16:05:24 10° 185° (S) 1,748 ? -12.1°
Maximum altitude 16:09:03 48° 260° (W) 688 ? -12.6°
Drops below altitude 10° 16:12:46 10° 336° (NNW) 1,776 ? -13.1°
Sets 16:14:57 0° 343° (NNW) 2,674 ? -13.4°
